Flag for Ireland Weather past 2 weeks in Dublin, Ireland

Now
55 °F

Partly sunny.


Feels Like: 52 °F
Forecast: 47 / 62 °F
Wind: 12 mph from Northwest

Location: Dublin Airport

Current Time: Aug 20, 2014 at 1:43:47 PM

Latest Report: Aug 20, 2014 at 1:00 PM


Visibility: N/A

Pressure: 30.09 "Hg

Humidity: 63%

Dew point: 43 °F

Location of DublinLocation

Historic Weather in Dublin — Graph

°F

Dublin temperature yesterday

Maximum temperature yesterday: 61 °F (at 3:00 PM)
Minimum temperature yesterday: 43 °F (at 11:30 PM)
Average temperature yesterday: 52 °F

Past Weeks' High & Low Weather Summary

 TemperatureHumidityPressure
High72 °F (Aug 5, 4:30 PM)100% (Aug 6, 12:00 AM)30.18 "Hg (Aug 6, 12:00 AM)
Low41 °F (Aug 20, 2:30 AM)48% (Aug 18, 2:30 PM)29.39 "Hg (Aug 10, 6:00 AM)
Average57 °F79%29.81 "Hg
* Reported Aug 5 12:00 Noon — Aug 20 12:30 PM, Dublin, Weather by CustomWeather, © 2014

Note: Actual official high and low records may vary slightly from our data, if they occured in-between our weather recording intervals... More about our weather records

Advertising

Dublin weather history for previous 24 hours

 ConditionsComfort  
Time TempWeatherWind HumidityBarometerVisibility
12:30 PM
Aug 20
57 °FPartly sunny.9 mph59%30.09 "HgN/A
12:00 PM57 °FPartly sunny.10 mph63%30.09 "HgN/A
11:30 AM57 °FPartly sunny.12 mph59%30.09 "HgN/A
11:00 AM55 °FPartly sunny.13 mph67%30.09 "HgN/A
10:30 AM55 °FPartly sunny.13 mph72%30.09 "HgN/A
10:00 AM54 °FPartly sunny.10 mph77%30.09 "HgN/A
9:30 AM52 °FPartly sunny.9 mph82%30.09 "HgN/A
9:00 AM50 °FPartly sunny.9 mph88%30.09 "HgN/A
8:30 AM50 °FPartly sunny.9 mph88%30.09 "HgN/A
8:00 AM48 °FPartly sunny.12 mph94%30.09 "HgN/A
7:30 AM48 °FPartly sunny.9 mph94%30.07 "HgN/A
7:00 AM46 °FPassing clouds.9 mph93%30.07 "HgN/A
6:30 AM46 °FPassing clouds.10 mph93%30.07 "HgN/A
6:00 AM46 °FPassing clouds.8 mph93%30.07 "HgN/A
5:30 AM46 °FPassing clouds.8 mph93%30.07 "HgN/A
5:00 AM46 °FPassing clouds.7 mph93%30.07 "HgN/A
4:30 AM45 °FPassing clouds.8 mph93%30.07 "HgN/A
4:00 AM43 °FPassing clouds.9 mph93%30.09 "HgN/A
3:30 AM41 °FPassing clouds.8 mph93%30.09 "HgN/A
3:00 AM41 °FPassing clouds.9 mph93%30.09 "HgN/A
2:30 AM41 °FPassing clouds.8 mph100%30.09 "HgN/A
2:00 AM43 °FPassing clouds.7 mph93%30.09 "HgN/A
1:30 AM45 °FPassing clouds.8 mph87%30.09 "HgN/A
1:00 AM43 °FPassing clouds.7 mph93%30.09 "HgN/A
12:30 AM45 °FPassing clouds.8 mph87%30.09 "HgN/A
12:00 AM43 °FPassing clouds.7 mph93%30.09 "HgN/A
11:30 PM
Aug 19
43 °FPassing clouds.8 mph93%30.09 "HgN/A
11:00 PM46 °FPassing clouds.7 mph87%30.07 "HgN/A
10:30 PM50 °FPassing clouds.7 mph82%30.07 "HgN/A
10:00 PM46 °FPassing clouds.6 mph93%30.07 "HgN/A
9:30 PM50 °FPartly sunny.5 mph82%30.07 "HgN/A
9:00 PM52 °FBroken clouds.7 mph77%30.07 "HgN/A
8:30 PM52 °FScattered showers. Scattered clouds.7 mph77%30.04 "HgN/A
8:00 PM54 °FScattered showers. Scattered clouds.8 mph77%30.04 "HgN/A
7:30 PM55 °FScattered showers. Scattered clouds.12 mph72%30.04 "HgN/A
7:00 PM55 °FScattered showers. Broken clouds.9 mph72%30.04 "HgN/A
6:30 PM55 °FScattered showers. Partly sunny.9 mph63%30.04 "HgN/A
6:00 PM57 °FScattered showers. Partly sunny.14 mph63%30.01 "HgN/A
5:30 PM57 °FScattered showers. Scattered clouds.12 mph59%30.01 "HgN/A
5:00 PM59 °FScattered showers. Scattered clouds.9 mph59%30.01 "HgN/A
4:30 PM55 °FSprinkles. Partly sunny.9 mph67%30.01 "HgN/A
4:00 PM57 °FSprinkles. Scattered clouds.14 mph63%30.01 "HgN/A
3:30 PM61 °FScattered showers. Passing clouds.13 mph52%30.01 "HgN/A
3:00 PM61 °FScattered showers. Scattered clouds.10 mph52%30.01 "HgN/A
2:30 PM59 °FSprinkles. Scattered clouds.12 mph55%30.01 "HgN/A
2:00 PM59 °FSprinkles. Scattered clouds.10 mph55%29.98 "HgN/A
1:30 PM57 °FPassing clouds.12 mph59%30.01 "HgN/A
1:00 PM57 °FBroken clouds.16 mph59%30.01 "HgN/A
Weather by CustomWeather, © 2014

See weather overviewHow to use our weather pages